{"data":{"norad_id":58977,"epoch":"2026-09-20T22:43:12.338976Z","epoch_age_seconds":117080,"freshness":"FRESH","line1":"1 58977U 24031N   26263.94667059  .00004275  00000+0  13763-3 0  9991","line2":"2 58977  53.1583 107.9083 0001219  87.5635 272.5507 15.34391636146435","mean_motion":15.34391636,"eccentricity":0.0001219,"inclination_deg":53.1583,"raan_deg":107.9083,"arg_perigee_deg":87.5635,"mean_anomaly_deg":272.5507,"bstar":0.00013763,"rev_number":14643,"period_min":93.848269647372,"perigee_km":461.89419843499,"apogee_km":463.56200134634,"semimajor_km":6840.8650998907,"source":"CELESTRAK","updated_at":"2026-09-21T09:00:34.021119Z"}}